TimeMDT,TemperatureF,Dew PointF,Humidity,Sea Level PressureIn,VisibilityMPH,Wind Direction,Wind SpeedMPH,Gust SpeedMPH,PrecipitationIn,Events,Conditions,WindDirDegrees,DateUTC
12:51 AM,32.0,21.9,66,29.74,10.0,Calm,Calm,-,N/A,,Clear,0,2013-10-29 06:51:00
1:51 AM,33.1,21.0,61,29.76,10.0,WNW,3.5,-,N/A,,Scattered Clouds,290,2013-10-29 07:51:00
2:51 AM,30.0,21.9,72,29.81,10.0,Calm,Calm,-,N/A,,Overcast,0,2013-10-29 08:51:00
3:51 AM,30.0,23.0,75,29.81,10.0,Calm,Calm,-,N/A,,Mostly Cloudy,0,2013-10-29 09:51:00
4:51 AM,28.0,21.9,78,29.82,10.0,Calm,Calm,-,N/A,,Clear,0,2013-10-29 10:51:00
5:51 AM,26.1,21.0,81,29.83,10.0,ENE,4.6,-,N/A,,Clear,60,2013-10-29 11:51:00
6:51 AM,25.0,21.0,85,29.87,10.0,Calm,Calm,-,N/A,,Clear,0,2013-10-29 12:51:00
7:51 AM,27.0,21.9,81,29.89,10.0,Calm,Calm,-,N/A,,Overcast,0,2013-10-29 13:51:00
8:51 AM,28.0,23.0,81,29.91,10.0,Calm,Calm,-,N/A,,Partly Cloudy,0,2013-10-29 14:51:00
9:51 AM,28.9,24.1,82,29.93,10.0,Calm,Calm,-,N/A,,Clear,0,2013-10-29 15:51:00
10:51 AM,37.9,27.0,65,29.91,10.0,Calm,Calm,-,N/A,,Overcast,0,2013-10-29 16:51:00
12:51 PM,44.1,28.0,53,29.89,10.0,SW,5.8,-,N/A,,Overcast,220,2013-10-29 18:51:00
1:51 PM,43.0,27.0,53,29.89,10.0,West,4.6,-,N/A,,Overcast,280,2013-10-29 19:51:00
2:51 PM,45.0,27.0,49,29.88,10.0,Calm,Calm,-,N/A,,Partly Cloudy,0,2013-10-29 20:51:00
3:51 PM,45.0,26.1,48,29.88,10.0,SSW,5.8,-,N/A,,Overcast,200,2013-10-29 21:51:00
4:51 PM,46.0,26.1,46,29.88,10.0,West,6.9,-,N/A,,Overcast,260,2013-10-29 22:51:00
5:51 PM,44.1,26.1,49,29.89,10.0,West,8.1,-,N/A,,Overcast,270,2013-10-29 23:51:00
6:51 PM,39.9,27.0,60,29.90,10.0,WNW,3.5,-,N/A,,Mostly Cloudy,300,2013-10-30 00:51:00
7:51 PM,39.0,27.0,62,29.92,10.0,NNW,4.6,-,N/A,,Overcast,330,2013-10-30 01:51:00
8:51 PM,39.0,27.0,62,29.93,10.0,Calm,Calm,-,N/A,,Overcast,0,2013-10-30 02:51:00
9:51 PM,37.9,27.0,65,29.94,10.0,NW,4.6,-,N/A,,Overcast,310,2013-10-30 03:51:00
10:51 PM,37.9,27.0,65,29.95,10.0,Calm,Calm,-,N/A,,Overcast,0,2013-10-30 04:51:00
11:51 PM,36.0,27.0,70,29.95,10.0,Calm,Calm,-,N/A,,Mostly Cloudy,0,2013-10-30 05:51:00